DW5499 Weather Reports


Display with metric or nautical units.
time (UTC)temp
F
wind
direction
speed
MPH
gust
MPH
rain 1hr
in
rain 24hr
in
rain mn
in
humidity
%
barometer
mb
20260506040027 50 263 3.0 5.0 0.00 0.21 0.21 72 1015.4
20260506034526 51 258 3.0 5.0 0.00 0.21 0.21 72 1015.2
20260506033023 52 246 2.0 4.0 0.00 0.21 0.21 62 1014.7
20260506031520 52 353 0.0 0.0 0.00 0.21 0.21 59 1014.3
20260506030018 52 349 1.0 3.0 0.00 0.21 0.21 58 1014.1
20260506024517 52 11 1.0 4.0 0.00 0.21 0.21 58 1013.9
20260506023017 52 354 2.0 8.0 0.00 0.21 0.21 58 1013.8
20260506021515 53 345 2.0 7.0 0.00 0.21 0.21 58 1013.6
20260506020025 53 9 4.0 10.0 0.00 0.21 0.21 57 1013.3
20260506014514 53 308 5.0 12.0 0.00 0.21 0.21 57 1013.1
20260506013013 53 326 0.0 5.0 0.00 0.21 0.21 57 1012.9
20260506011512 53 335 0.0 4.0 0.00 0.21 0.21 55 1012.7
20260506010016 54 335 1.0 6.0 0.00 0.21 0.21 54 1012.5
20260506004521 54 345 2.0 8.0 0.00 0.21 0.21 52 1012.4
20260506003011 54 345 3.0 6.0 0.00 0.21 0.21 52 1012.3
20260506001511 54 340 2.0 6.0 0.00 0.21 0.21 52 1012.4
20260506000010 55 351 1.0 9.0 0.00 0.21 0.21 54 1012.1
20260505234512 55 330 4.0 11.0 0.00 0.21 0.21 59 1012.3
20260505233009 54 349 1.0 4.0 0.00 0.21 0.21 72 1012.1
20260505231513 54 253 1.0 4.0 0.00 0.21 0.21 72 1012.1
20260505230017 54 255 1.0 3.0 0.00 0.21 0.21 71 1012.3
20260505224506 54 228 1.0 4.0 0.00 0.21 0.21 71 1011.8
20260505223007 54 246 0.0 5.0 0.00 0.21 0.21 71 1011.8
20260505221507 54 248 1.0 4.0 0.00 0.21 0.21 71 1011.9
20260505220006 54 243 2.0 5.0 0.00 0.21 0.21 70 1011.9
20260505214505 54 324 0.0 3.0 0.00 0.21 0.21 70 1012.1
20260505213007 53 329 1.0 4.0 0.00 0.21 0.21 71 1012.1
20260505211504 53 328 1.0 4.0 0.00 0.21 0.21 71 1012.2
20260505210004 53 282 0.0 3.0 0.00 0.21 0.21 71 1012.2
20260505204503 53 297 0.0 5.0 0.00 0.21 0.21 70 1012.3
20260505203010 53 340 2.0 5.0 0.00 0.21 0.21 70 1012.5
20260505201505 52 340 2.0 6.0 0.00 0.21 0.21 70 1012.4
20260505200002 52 356 0.0 4.0 0.00 0.21 0.21 71 1012.6
20260505194501 51 2 0.0 5.0 0.00 0.21 0.21 71 1012.5
20260505193001 51 18 2.0 7.0 0.00 0.21 0.21 71 1012.8
20260505191606 51 350 1.0 6.0 0.00 0.21 0.21 72 1012.6
20260505190115 51 8 0.0 3.0 0.00 0.21 0.21 72 1012.8
20260505184600 51 24 1.0 5.0 0.00 0.21 0.21 73 1012.7
20260505183059 51 95 0.0 3.0 0.00 0.21 0.21 73 1012.7
20260505181641 50 70 1.0 4.0 0.00 0.21 0.21 74 1012.9
20260505180106 50 124 2.0 7.0 0.00 0.21 0.21 75 1012.7
20260505174536 50 62 3.0 6.0 0.00 0.21 0.21 75 1012.8
20260505173026 50 68 4.0 7.0 0.00 0.21 0.21 76 1013.0
20260505171533 49 43 4.0 8.0 0.00 0.21 0.21 79 1012.9
20260505170025 49 33 3.0 7.0 0.00 0.21 0.21 80 1013.0
20260505164525 49 353 2.0 5.0 0.00 0.21 0.21 81 1013.3
20260505163024 48 40 1.0 5.0 0.00 0.21 0.21 80 1013.4
20260505161524 48 31 3.0 5.0 0.00 0.21 0.21 81 1013.2
20260505153033 48 47 1.0 6.0 0.05 0.21 0.21 81 1013.1
20260505151522 48 70 0.0 3.0 0.07 0.21 0.21 83 1013.1
20260505124557 50 360 0.0 3.0 0.04 0.04 0.04 71 1011.2
20260505123059 51 37 1.0 6.0 0.03 0.03 0.03 65 1010.5
20260505121551 51 35 0.0 4.0 0.02 0.02 0.02 63 1010.3
20260505120106 52 33 7.0 10.0 0.01 0.01 0.01 58 1009.6
20260505114544 53 29 0.0 7.0 0.00 0.00 0.00 52 1010.6
20260505113042 53 47 4.0 11.0 0.00 0.00 0.00 50 1009.8
20260505111542 53 62 3.0 11.0 0.00 0.00 0.00 50 1009.9
20260505110104 53 63 2.0 10.0 0.00 0.00 0.00 50 1009.5
20260505101535 54 33 6.0 13.0 0.00 0.00 0.00 48 1009.7
20260505100036 54 353 5.0 11.0 0.00 0.00 0.00 48 1009.9
20260505094533 55 335 4.0 10.0 0.00 0.00 0.00 50 1009.9
20260505093030 55 12 5.0 10.0 0.00 0.00 0.00 49 1009.3
20260505091530 55 340 4.0 14.0 0.00 0.00 0.00 50 1009.1
20260505090029 55 19 5.0 13.0 0.00 0.00 0.00 50 1008.5
20260505084529 55 22 6.0 12.0 0.00 0.00 0.00 50 1008.3
20260505083026 55 17 7.0 13.0 0.00 0.00 0.00 49 1008.0
20260505081525 55 353 7.0 14.0 0.00 0.00 0.00 48 1008.3
20260505080021 56 4 8.0 18.0 0.00 0.00 0.00 46 1008.8
20260505074519 56 47 7.0 13.0 0.00 0.00 0.00 49 1008.8
20260505073016 56 359 4.0 12.0 0.00 0.00 0.00 48 1009.0
20260505071512 57 3 9.0 15.0 0.00 0.00 0.00 45 1009.3
20260505070008 58 345 4.0 17.0 0.00 0.00 0.00 43 1008.7
20260505064504 58 360 12.0 18.0 0.00 0.00 0.00 42 1008.2
20260505063002 59 328 10.0 18.0 0.00 0.00 0.00 42 1006.9
20260505061601 59 335 11.0 26.0 0.00 0.00 0.00 40 1007.0
20260505060055 60 29 9.0 21.0 0.00 0.00 0.00 41 1006.7
20260505054552 61 76 12.0 23.0 0.00 0.00 0.00 39 1006.6
20260505053047 63 353 11.0 22.0 0.00 0.00 0.00 39 1006.6
20260505051544 65 340 10.0 18.0 0.00 0.00 0.00 39 1006.2
20260505041537 69 17 7.0 19.0 0.00 0.00 0.00 38 1004.4